| time (UTC) | temp F | wind direction | speed MPH | gust MPH | rain 1hr in | rain 24hr in | rain mn in | humidity % | barometer mb |
| 20260509184009 | 71 | 311 | 2.0 | 4.0 | 0.00 | 0.00 | 0.00 | 49 | 1014.2 |
| 20260509183509 | 71 | 325 | 0.0 | 4.0 | 0.00 | 0.00 | 0.00 | 49 | 1014.3 |
| 20260509183009 | 71 | 325 | 1.0 | 5.0 | 0.00 | 0.00 | 0.00 | 49 | 1014.4 |
| 20260509182510 | 71 | 335 | 0.0 | 6.0 | 0.00 | 0.00 | 0.00 | 48 | 1014.4 |
| 20260509182008 | 72 | 311 | 1.0 | 6.0 | 0.00 | 0.00 | 0.00 | 48 | 1014.4 |
| 20260509181508 | 72 | 327 | 2.0 | 5.0 | 0.00 | 0.00 | 0.00 | 47 | 1014.4 |
| 20260509181008 | 72 | 355 | 2.0 | 6.0 | 0.00 | 0.00 | 0.00 | 47 | 1014.3 |
| 20260509180507 | 72 | 309 | 3.0 | 6.0 | 0.00 | 0.00 | 0.00 | 47 | 1014.4 |
| 20260509180015 | 73 | 327 | 2.0 | 5.0 | 0.00 | 0.00 | 0.00 | 47 | 1014.4 |
| 20260509175515 | 73 | 333 | 2.0 | 6.0 | 0.00 | 0.00 | 0.00 | 47 | 1014.3 |
| 20260509175007 | 73 | 321 | 3.0 | 6.0 | 0.00 | 0.00 | 0.00 | 46 | 1014.3 |
| 20260509174507 | 73 | 184 | 1.0 | 6.0 | 0.00 | 0.00 | 0.00 | 47 | 1014.3 |
| 20260509174007 | 74 | 215 | 1.0 | 9.0 | 0.00 | 0.00 | 0.00 | 46 | 1014.3 |
| 20260509173513 | 74 | 335 | 2.0 | 4.0 | 0.00 | 0.00 | 0.00 | 46 | 1014.3 |
| 20260509173013 | 74 | 226 | 1.0 | 4.0 | 0.00 | 0.00 | 0.00 | 45 | 1014.3 |
| 20260509172507 | 74 | 301 | 1.0 | 9.0 | 0.00 | 0.00 | 0.00 | 45 | 1014.2 |
| 20260509172007 | 75 | 237 | 3.0 | 9.0 | 0.00 | 0.00 | 0.00 | 44 | 1014.3 |
| 20260509171514 | 75 | 216 | 2.0 | 8.0 | 0.00 | 0.00 | 0.00 | 44 | 1014.3 |
| 20260509171011 | 75 | 207 | 3.0 | 8.0 | 0.00 | 0.00 | 0.00 | 44 | 1014.2 |
| 20260509170506 | 75 | 312 | 1.0 | 6.0 | 0.00 | 0.00 | 0.00 | 45 | 1014.3 |
| 20260509170006 | 75 | 307 | 1.0 | 8.0 | 0.00 | 0.00 | 0.00 | 45 | 1014.2 |
| 20260509165504 | 75 | 32 | 3.0 | 9.0 | 0.00 | 0.00 | 0.00 | 44 | 1014.3 |
| 20260509165006 | 75 | 202 | 3.0 | 9.0 | 0.00 | 0.00 | 0.00 | 44 | 1014.4 |
| 20260509164505 | 75 | 189 | 1.0 | 5.0 | 0.00 | 0.00 | 0.00 | 44 | 1014.3 |
| 20260509164003 | 75 | 332 | 1.0 | 9.0 | 0.00 | 0.00 | 0.00 | 45 | 1014.3 |
| 20260509163503 | 75 | 222 | 2.0 | 9.0 | 0.00 | 0.00 | 0.00 | 44 | 1014.4 |
| 20260509163003 | 75 | 206 | 1.0 | 8.0 | 0.00 | 0.00 | 0.00 | 44 | 1014.5 |
| 20260509162503 | 75 | 222 | 1.0 | 8.0 | 0.00 | 0.00 | 0.00 | 43 | 1014.4 |
| 20260509162003 | 76 | 321 | 2.0 | 7.0 | 0.00 | 0.00 | 0.00 | 43 | 1014.5 |
| 20260509161502 | 75 | 328 | 2.0 | 8.0 | 0.00 | 0.00 | 0.00 | 43 | 1014.5 |
| 20260509161005 | 76 | 239 | 4.0 | 7.0 | 0.00 | 0.00 | 0.00 | 42 | 1014.7 |
| 20260509160502 | 76 | 207 | 2.0 | 6.0 | 0.00 | 0.00 | 0.00 | 42 | 1014.7 |
| 20260509160002 | 76 | 226 | 1.0 | 9.0 | 0.00 | 0.00 | 0.00 | 41 | 1014.7 |
| 20260509155501 | 77 | 207 | 1.0 | 4.0 | 0.00 | 0.00 | 0.00 | 41 | 1014.7 |
| 20260509155002 | 76 | 355 | 1.0 | 6.0 | 0.00 | 0.00 | 0.00 | 41 | 1014.7 |
| 20260509154501 | 77 | 303 | 2.0 | 7.0 | 0.00 | 0.00 | 0.00 | 41 | 1014.8 |
| 20260509154004 | 77 | 277 | 1.0 | 6.0 | 0.00 | 0.00 | 0.00 | 40 | 1014.7 |
| 20260509153501 | 77 | 221 | 1.0 | 6.0 | 0.00 | 0.00 | 0.00 | 39 | 1014.7 |
| 20260509153002 | 77 | 176 | 1.0 | 3.0 | 0.00 | 0.00 | 0.00 | 39 | 1014.7 |
| 20260509152502 | 77 | 176 | 1.0 | 5.0 | 0.00 | 0.00 | 0.00 | 39 | 1014.6 |
| 20260509152001 | 77 | 126 | 1.0 | 5.0 | 0.00 | 0.00 | 0.00 | 39 | 1014.6 |
| 20260509151615 | 77 | 152 | 1.0 | 5.0 | 0.00 | 0.00 | 0.00 | 37 | 1014.7 |
| 20260509151103 | 77 | 64 | 1.0 | 5.0 | 0.00 | 0.00 | 0.00 | 37 | 1014.7 |
| 20260509150559 | 77 | 15 | 1.0 | 3.0 | 0.00 | 0.00 | 0.00 | 37 | 1014.7 |
| 20260509150112 | 77 | 22 | 0.0 | 5.0 | 0.00 | 0.00 | 0.00 | 37 | 1014.7 |
| 20260509145559 | 77 | 196 | 2.0 | 5.0 | 0.00 | 0.00 | 0.00 | 37 | 1014.7 |
| 20260509145100 | 77 | 214 | 2.0 | 5.0 | 0.00 | 0.00 | 0.00 | 37 | 1014.8 |
| 20260509144603 | 77 | 193 | 1.0 | 4.0 | 0.00 | 0.00 | 0.00 | 37 | 1014.8 |
| 20260509144059 | 77 | 24 | 1.0 | 4.0 | 0.00 | 0.00 | 0.00 | 39 | 1014.8 |
| 20260509143558 | 76 | 271 | 0.0 | 8.0 | 0.00 | 0.00 | 0.00 | 39 | 1015.0 |
| 20260509143106 | 77 | 319 | 3.0 | 8.0 | 0.00 | 0.00 | 0.00 | 36 | 1015.1 |
| 20260509142556 | 78 | 23 | 0.0 | 6.0 | 0.00 | 0.00 | 0.00 | 38 | 1015.2 |
| 20260509142055 | 78 | 305 | 2.0 | 6.0 | 0.00 | 0.00 | 0.00 | 36 | 1015.2 |
| 20260509141555 | 77 | 29 | 1.0 | 9.0 | 0.00 | 0.00 | 0.00 | 37 | 1015.4 |
| 20260509141054 | 78 | 324 | 0.0 | 4.0 | 0.00 | 0.00 | 0.00 | 37 | 1015.5 |
| 20260509140552 | 77 | 12 | 1.0 | 6.0 | 0.00 | 0.00 | 0.00 | 37 | 1015.6 |
| 20260509140059 | 77 | 350 | 1.0 | 5.0 | 0.00 | 0.00 | 0.00 | 37 | 1015.7 |
| 20260509135552 | 77 | 317 | 1.0 | 5.0 | 0.00 | 0.00 | 0.00 | 37 | 1015.8 |
| 20260509135052 | 77 | 323 | 0.0 | 8.0 | 0.00 | 0.00 | 0.00 | 37 | 1015.9 |
| 20260509134553 | 77 | 25 | 2.0 | 8.0 | 0.00 | 0.00 | 0.00 | 37 | 1015.9 |
| 20260509134053 | 78 | 313 | 1.0 | 4.0 | 0.00 | 0.00 | 0.00 | 37 | 1016.0 |
| 20260509133550 | 78 | 189 | 1.0 | 3.0 | 0.00 | 0.00 | 0.00 | 38 | 1016.1 |
| 20260509133059 | 78 | 189 | 0.0 | 4.0 | 0.00 | 0.00 | 0.00 | 36 | 1016.2 |
| 20260509132549 | 78 | 189 | 0.0 | 4.0 | 0.00 | 0.00 | 0.00 | 39 | 1016.3 |
| 20260509132048 | 78 | 189 | 1.0 | 5.0 | 0.00 | 0.00 | 0.00 | 36 | 1016.4 |
| 20260509131548 | 77 | 350 | 0.0 | 5.0 | 0.00 | 0.00 | 0.00 | 38 | 1016.5 |
| 20260509131047 | 77 | 190 | 0.0 | 5.0 | 0.00 | 0.00 | 0.00 | 38 | 1016.5 |
| 20260509130546 | 77 | 26 | 1.0 | 4.0 | 0.00 | 0.00 | 0.00 | 37 | 1016.5 |
| 20260509130052 | 76 | 238 | 0.0 | 4.0 | 0.00 | 0.00 | 0.00 | 38 | 1016.6 |
| 20260509125544 | 76 | 319 | 1.0 | 9.0 | 0.00 | 0.00 | 0.00 | 38 | 1016.6 |
| 20260509125044 | 76 | 304 | 1.0 | 9.0 | 0.00 | 0.00 | 0.00 | 38 | 1016.7 |
| 20260509124553 | 77 | 191 | 1.0 | 8.0 | 0.00 | 0.00 | 0.00 | 40 | 1016.7 |
| 20260509124044 | 75 | 228 | 1.0 | 8.0 | 0.00 | 0.00 | 0.00 | 39 | 1016.6 |
| 20260509123544 | 76 | 190 | 1.0 | 7.0 | 0.00 | 0.00 | 0.00 | 37 | 1016.7 |
| 20260509123043 | 76 | 228 | 3.0 | 7.0 | 0.00 | 0.00 | 0.00 | 37 | 1016.8 |
| 20260509122542 | 76 | 36 | 1.0 | 10.0 | 0.00 | 0.00 | 0.00 | 38 | 1016.9 |
| 20260509122043 | 76 | 336 | 3.0 | 10.0 | 0.00 | 0.00 | 0.00 | 39 | 1016.9 |
| 20260509121554 | 76 | 224 | 0.0 | 5.0 | 0.00 | 0.00 | 0.00 | 37 | 1016.9 |
| 20260509121041 | 77 | 195 | 1.0 | 5.0 | 0.00 | 0.00 | 0.00 | 38 | 1017.1 |
| 20260509120540 | 77 | 348 | 2.0 | 5.0 | 0.00 | 0.00 | 0.00 | 38 | 1017.1 |
| 20260509120042 | 77 | 180 | 1.0 | 4.0 | 0.00 | 0.00 | 0.00 | 39 | 1017.2 |
| 20260509115538 | 76 | 180 | 0.0 | 4.0 | 0.00 | 0.00 | 0.00 | 36 | 1017.2 |
| 20260509115039 | 76 | 180 | 0.0 | 4.0 | 0.00 | 0.00 | 0.00 | 38 | 1017.2 |
| 20260509114552 | 75 | 180 | 0.0 | 6.0 | 0.00 | 0.00 | 0.00 | 40 | 1017.3 |
| 20260509114037 | 75 | 65 | 2.0 | 6.0 | 0.00 | 0.00 | 0.00 | 39 | 1017.4 |
| 20260509113537 | 75 | 308 | 1.0 | 5.0 | 0.00 | 0.00 | 0.00 | 40 | 1017.5 |
| 20260509113037 | 75 | 355 | 0.0 | 5.0 | 0.00 | 0.00 | 0.00 | 39 | 1017.5 |
| 20260509112536 | 75 | 327 | 1.0 | 5.0 | 0.00 | 0.00 | 0.00 | 40 | 1017.6 |
| 20260509112041 | 75 | 184 | 0.0 | 6.0 | 0.00 | 0.00 | 0.00 | 40 | 1017.6 |
| 20260509111533 | 74 | 19 | 0.0 | 7.0 | 0.00 | 0.00 | 0.00 | 44 | 1017.8 |
| 20260509111033 | 74 | 49 | 2.0 | 7.0 | 0.00 | 0.00 | 0.00 | 45 | 1017.8 |
| 20260509110531 | 73 | 317 | 0.0 | 5.0 | 0.00 | 0.00 | 0.00 | 44 | 1017.8 |
| 20260509110030 | 73 | 324 | 2.0 | 5.0 | 0.00 | 0.00 | 0.00 | 44 | 1018.0 |
| 20260509105529 | 73 | 184 | 1.0 | 8.0 | 0.00 | 0.00 | 0.00 | 46 | 1018.1 |
| 20260509105032 | 72 | 322 | 2.0 | 8.0 | 0.00 | 0.00 | 0.00 | 46 | 1018.1 |
| 20260509104528 | 73 | 215 | 1.0 | 6.0 | 0.00 | 0.00 | 0.00 | 47 | 1018.2 |
| 20260509104027 | 74 | 195 | 2.0 | 8.0 | 0.00 | 0.00 | 0.00 | 45 | 1018.2 |
| 20260509103526 | 75 | 186 | 0.0 | 2.0 | 0.00 | 0.00 | 0.00 | 48 | 1018.2 |
| 20260509103025 | 74 | 186 | 0.0 | 3.0 | 0.00 | 0.00 | 0.00 | 49 | 1018.2 |
| 20260509102525 | 73 | 186 | 0.0 | 3.0 | 0.00 | 0.00 | 0.00 | 52 | 1018.3 |
| 20260509102023 | 73 | 186 | 0.0 | 3.0 | 0.00 | 0.00 | 0.00 | 52 | 1018.3 |
| 20260509101524 | 72 | 168 | 0.0 | 5.0 | 0.00 | 0.00 | 0.00 | 51 | 1018.4 |
| 20260509101021 | 73 | 167 | 1.0 | 4.0 | 0.00 | 0.00 | 0.00 | 51 | 1018.4 |
| 20260509100519 | 72 | 167 | 0.0 | 3.0 | 0.00 | 0.00 | 0.00 | 54 | 1018.4 |
| 20260509100019 | 72 | 167 | 2.0 | 3.0 | 0.00 | 0.00 | 0.00 | 51 | 1018.4 |
| 20260509095518 | 71 | 167 | 0.0 | 0.0 | 0.00 | 0.00 | 0.00 | 52 | 1018.5 |
| 20260509095016 | 72 | 167 | 0.0 | 2.0 | 0.00 | 0.00 | 0.00 | 53 | 1018.6 |
| 20260509094521 | 71 | 167 | 0.0 | 3.0 | 0.00 | 0.00 | 0.00 | 52 | 1018.6 |
| 20260509094014 | 71 | 167 | 2.0 | 4.0 | 0.00 | 0.00 | 0.00 | 53 | 1018.7 |
| 20260509093513 | 71 | 168 | 0.0 | 5.0 | 0.00 | 0.00 | 0.00 | 55 | 1018.8 |
| 20260509093010 | 71 | 167 | 1.0 | 5.0 | 0.00 | 0.00 | 0.00 | 55 | 1018.7 |
| 20260509092514 | 70 | 146 | 0.0 | 4.0 | 0.00 | 0.00 | 0.00 | 57 | 1018.8 |
| 20260509092008 | 70 | 22 | 0.0 | 4.0 | 0.00 | 0.00 | 0.00 | 58 | 1018.8 |
| 20260509091510 | 70 | 22 | 0.0 | 3.0 | 0.00 | 0.00 | 0.00 | 58 | 1018.9 |
| 20260509091007 | 70 | 21 | 0.0 | 3.0 | 0.00 | 0.00 | 0.00 | 59 | 1018.9 |
| 20260509090506 | 69 | 21 | 1.0 | 3.0 | 0.00 | 0.00 | 0.00 | 60 | 1018.9 |
| 20260509090015 | 68 | 130 | 0.0 | 3.0 | 0.00 | 0.00 | 0.00 | 62 | 1019.0 |
| 20260509085503 | 68 | 130 | 0.0 | 4.0 | 0.00 | 0.00 | 0.00 | 63 | 1019.0 |
| 20260509085001 | 67 | 136 | 0.0 | 3.0 | 0.00 | 0.00 | 0.00 | 63 | 1019.0 |
| 20260509084606 | 67 | 136 | 0.0 | 4.0 | 0.00 | 0.00 | 0.00 | 64 | 1019.0 |
| 20260509084059 | 66 | 140 | 0.0 | 4.0 | 0.00 | 0.00 | 0.00 | 65 | 1019.0 |
| 20260509083557 | 65 | 117 | 0.0 | 6.0 | 0.00 | 0.00 | 0.00 | 67 | 1019.0 |
| 20260509083058 | 64 | 120 | 1.0 | 6.0 | 0.00 | 0.00 | 0.00 | 67 | 1019.1 |
| 20260509082556 | 64 | 146 | 0.0 | 3.0 | 0.00 | 0.00 | 0.00 | 68 | 1019.1 |
| 20260509082053 | 63 | 138 | 0.0 | 4.0 | 0.00 | 0.00 | 0.00 | 69 | 1019.1 |
| 20260509081552 | 63 | 139 | 2.0 | 4.0 | 0.00 | 0.00 | 0.00 | 69 | 1019.1 |
| 20260509081051 | 63 | 89 | 0.0 | 5.0 | 0.00 | 0.00 | 0.00 | 71 | 1019.2 |
| 20260509080549 | 62 | 53 | 1.0 | 5.0 | 0.00 | 0.00 | 0.00 | 72 | 1019.2 |
| 20260509080106 | 62 | 136 | 0.0 | 5.0 | 0.00 | 0.00 | 0.00 | 73 | 1019.2 |
| 20260509075548 | 61 | 136 | 2.0 | 5.0 | 0.00 | 0.00 | 0.00 | 75 | 1019.2 |
| 20260509075052 | 61 | 134 | 0.0 | 2.0 | 0.00 | 0.00 | 0.00 | 77 | 1019.3 |
| 20260509074545 | 60 | 135 | 0.0 | 4.0 | 0.00 | 0.00 | 0.00 | 77 | 1019.2 |
| 20260509074047 | 60 | 135 | 1.0 | 5.0 | 0.00 | 0.00 | 0.00 | 77 | 1019.3 |
| 20260509073542 | 59 | 129 | 1.0 | 4.0 | 0.00 | 0.00 | 0.00 | 78 | 1019.4 |
| 20260509073042 | 59 | 34 | 0.0 | 3.0 | 0.00 | 0.00 | 0.00 | 79 | 1019.4 |
| 20260509072542 | 59 | 33 | 1.0 | 3.0 | 0.00 | 0.00 | 0.00 | 79 | 1019.4 |
| 20260509072041 | 59 | 74 | 0.0 | 2.0 | 0.00 | 0.00 | 0.00 | 79 | 1019.4 |
| 20260509071541 | 59 | 74 | 0.0 | 2.0 | 0.00 | 0.00 | 0.00 | 80 | 1019.5 |
| 20260509071041 | 58 | 76 | 0.0 | 3.0 | 0.00 | 0.00 | 0.00 | 80 | 1019.5 |
| 20260509070541 | 58 | 76 | 0.0 | 3.0 | 0.00 | 0.00 | 0.00 | 80 | 1019.5 |
| 20260509070044 | 58 | 76 | 0.0 | 2.0 | 0.00 | 0.00 | 0.00 | 81 | 1019.5 |
| 20260509065540 | 58 | 32 | 0.0 | 3.0 | 0.00 | 0.00 | 0.00 | 82 | 1019.5 |
| 20260509065039 | 57 | 54 | 0.0 | 3.0 | 0.00 | 0.00 | 0.00 | 83 | 1019.4 |
| 20260509064540 | 57 | 350 | 0.0 | 3.0 | 0.00 | 0.00 | 0.00 | 84 | 1019.5 |
| 20260509064039 | 57 | 360 | 0.0 | 3.0 | 0.00 | 0.00 | 0.00 | 85 | 1019.5 |
| 20260509063539 | 56 | 309 | 0.0 | 2.0 | 0.00 | 0.00 | 0.00 | 87 | 1019.6 |
| 20260509063044 | 55 | 309 | 0.0 | 2.0 | 0.00 | 0.00 | 0.00 | 88 | 1019.5 |
| 20260509062538 | 55 | 309 | 0.0 | 3.0 | 0.00 | 0.00 | 0.00 | 88 | 1019.5 |
| 20260509062038 | 54 | 309 | 0.0 | 3.0 | 0.00 | 0.00 | 0.00 | 89 | 1019.5 |
| 20260509061538 | 54 | 310 | 1.0 | 3.0 | 0.00 | 0.00 | 0.00 | 90 | 1019.4 |
| 20260509061038 | 53 | 251 | 0.0 | 2.0 | 0.00 | 0.00 | 0.00 | 90 | 1019.4 |
| 20260509060536 | 53 | 253 | 0.0 | 2.0 | 0.00 | 0.00 | 0.00 | 90 | 1019.4 |
| 20260509060035 | 53 | 247 | 0.0 | 2.0 | 0.00 | 0.00 | 0.00 | 91 | 1019.5 |
| 20260509055533 | 52 | 274 | 0.0 | 2.0 | 0.00 | 0.00 | 0.00 | 91 | 1019.4 |
| 20260509055033 | 52 | 261 | 0.0 | 3.0 | 0.00 | 0.00 | 0.00 | 91 | 1019.4 |
| 20260509054532 | 51 | 274 | 0.0 | 3.0 | 0.00 | 0.00 | 0.00 | 91 | 1019.3 |
| 20260509054031 | 51 | 273 | 1.0 | 3.0 | 0.00 | 0.00 | 0.00 | 91 | 1019.4 |
| 20260509053530 | 51 | 273 | 0.0 | 2.0 | 0.00 | 0.00 | 0.00 | 91 | 1019.5 |
| 20260509053039 | 51 | 273 | 0.0 | 3.0 | 0.00 | 0.00 | 0.00 | 91 | 1019.5 |
| 20260509052528 | 50 | 304 | 1.0 | 4.0 | 0.00 | 0.00 | 0.00 | 91 | 1019.4 |
| 20260509052027 | 50 | 302 | 1.0 | 4.0 | 0.00 | 0.00 | 0.00 | 91 | 1019.3 |
| 20260509051530 | 50 | 282 | 0.0 | 3.0 | 0.00 | 0.00 | 0.00 | 91 | 1019.3 |
| 20260509051030 | 50 | 315 | 1.0 | 3.0 | 0.00 | 0.00 | 0.00 | 91 | 1019.4 |
| 20260509050526 | 49 | 317 | 1.0 | 3.0 | 0.00 | 0.00 | 0.00 | 91 | 1019.2 |
| 20260509050045 | 49 | 317 | 1.0 | 3.0 | 0.00 | 0.00 | 0.00 | 91 | 1019.2 |
| 20260509045525 | 49 | 320 | 0.0 | 3.0 | 0.00 | 0.00 | 0.00 | 91 | 1019.2 |
| 20260509045023 | 49 | 319 | 0.0 | 3.0 | 0.00 | 0.00 | 0.00 | 91 | 1019.1 |
| 20260509044523 | 49 | 317 | 0.0 | 0.0 | 0.00 | 0.00 | 0.00 | 90 | 1019.1 |
| 20260509044022 | 49 | 317 | 0.0 | 0.0 | 0.00 | 0.00 | 0.00 | 90 | 1019.1 |
| 20260509043521 | 49 | 317 | 0.0 | 0.0 | 0.00 | 0.00 | 0.00 | 90 | 1019.0 |
| 20260509043033 | 49 | 317 | 0.0 | 0.0 | 0.00 | 0.00 | 0.00 | 90 | 1019.1 |
| 20260509042521 | 49 | 317 | 0.0 | 0.0 | 0.00 | 0.00 | 0.00 | 90 | 1019.0 |
| 20260509042019 | 49 | 315 | 0.0 | 0.0 | 0.00 | 0.00 | 0.00 | 90 | 1019.0 |
| 20260509041519 | 49 | 316 | 0.0 | 0.0 | 0.00 | 0.00 | 0.00 | 90 | 1019.0 |
| 20260509041019 | 49 | 316 | 0.0 | 0.0 | 0.00 | 0.00 | 0.00 | 90 | 1018.9 |
| 20260509040518 | 49 | 316 | 0.0 | 0.0 | 0.00 | 0.00 | 0.00 | 90 | 1018.8 |
| 20260509040018 | 49 | 316 | 0.0 | 0.0 | 0.00 | 0.00 | 0.00 | 90 | 1018.9 |
| 20260509035517 | 50 | 316 | 0.0 | 0.0 | 0.00 | 0.00 | 0.00 | 90 | 1018.8 |
| 20260509035019 | 50 | 318 | 0.0 | 6.0 | 0.00 | 0.00 | 0.00 | 90 | 1018.8 |
| 20260509034517 | 50 | 318 | 1.0 | 6.0 | 0.00 | 0.00 | 0.00 | 90 | 1018.8 |
| 20260509034016 | 50 | 182 | 0.0 | 3.0 | 0.00 | 0.00 | 0.00 | 90 | 1018.7 |
| 20260509033519 | 50 | 182 | 0.0 | 3.0 | 0.00 | 0.00 | 0.00 | 90 | 1018.6 |
| 20260509033019 | 50 | 182 | 0.0 | 3.0 | 0.00 | 0.00 | 0.00 | 89 | 1018.5 |
| 20260509032521 | 50 | 182 | 0.0 | 3.0 | 0.00 | 0.00 | 0.00 | 89 | 1018.6 |
| 20260509032013 | 50 | 182 | 0.0 | 0.0 | 0.00 | 0.00 | 0.00 | 89 | 1018.8 |
| 20260509031513 | 50 | 182 | 0.0 | 1.0 | 0.00 | 0.00 | 0.00 | 89 | 1018.9 |
| 20260509031012 | 50 | 182 | 0.0 | 1.0 | 0.00 | 0.00 | 0.00 | 89 | 1018.9 |
| 20260509030512 | 50 | 182 | 0.0 | 0.0 | 0.00 | 0.00 | 0.00 | 89 | 1018.9 |
| 20260509030018 | 50 | 182 | 0.0 | 0.0 | 0.00 | 0.00 | 0.00 | 89 | 1018.9 |
| 20260509025510 | 51 | 182 | 0.0 | 1.0 | 0.00 | 0.00 | 0.00 | 89 | 1018.9 |
| 20260509025010 | 51 | 182 | 0.0 | 2.0 | 0.00 | 0.00 | 0.00 | 89 | 1019.0 |
| 20260509024510 | 51 | 182 | 0.0 | 3.0 | 0.00 | 0.00 | 0.00 | 89 | 1019.0 |
| 20260509024016 | 51 | 182 | 0.0 | 4.0 | 0.00 | 0.00 | 0.00 | 89 | 1019.0 |
| 20260509023610 | 51 | 182 | 1.0 | 4.0 | 0.00 | 0.00 | 0.00 | 89 | 1019.0 |
| 20260509023010 | 51 | 182 | 1.0 | 3.0 | 0.00 | 0.00 | 0.00 | 88 | 1019.0 |
| 20260509022511 | 51 | 182 | 0.0 | 2.0 | 0.00 | 0.00 | 0.00 | 88 | 1019.0 |
| 20260509022009 | 51 | 182 | 0.0 | 0.0 | 0.00 | 0.00 | 0.00 | 88 | 1019.0 |
| 20260509021509 | 51 | 182 | 0.0 | 0.0 | 0.00 | 0.00 | 0.00 | 88 | 1018.9 |
| 20260509021008 | 51 | 182 | 0.0 | 0.0 | 0.00 | 0.00 | 0.00 | 88 | 1019.0 |
| 20260509020507 | 51 | 182 | 0.0 | 2.0 | 0.00 | 0.00 | 0.00 | 88 | 1019.1 |
| 20260509020007 | 51 | 182 | 0.0 | 2.0 | 0.00 | 0.00 | 0.00 | 88 | 1019.0 |
| 20260509015508 | 51 | 182 | 0.0 | 1.0 | 0.00 | 0.00 | 0.00 | 88 | 1019.0 |
| 20260509015010 | 51 | 182 | 0.0 | 0.0 | 0.00 | 0.00 | 0.00 | 87 | 1019.0 |
| 20260509014507 | 52 | 182 | 0.0 | 0.0 | 0.00 | 0.00 | 0.00 | 87 | 1019.0 |
| 20260509014005 | 52 | 182 | 0.0 | 0.0 | 0.00 | 0.00 | 0.00 | 87 | 1019.0 |
| 20260509013505 | 52 | 182 | 0.0 | 0.0 | 0.00 | 0.00 | 0.00 | 87 | 1019.0 |
| 20260509013006 | 52 | 182 | 0.0 | 0.0 | 0.00 | 0.00 | 0.00 | 87 | 1019.0 |
| 20260509012505 | 52 | 182 | 0.0 | 0.0 | 0.00 | 0.00 | 0.00 | 86 | 1019.0 |
| 20260509012004 | 52 | 182 | 0.0 | 1.0 | 0.00 | 0.00 | 0.00 | 86 | 1019.0 |
| 20260509011507 | 52 | 182 | 0.0 | 1.0 | 0.00 | 0.00 | 0.00 | 86 | 1019.0 |
| 20260509011005 | 52 | 182 | 0.0 | 0.0 | 0.00 | 0.00 | 0.00 | 86 | 1019.0 |
| 20260509010502 | 52 | 182 | 0.0 | 0.0 | 0.00 | 0.00 | 0.00 | 86 | 1019.0 |
| 20260509010007 | 52 | 182 | 0.0 | 1.0 | 0.00 | 0.00 | 0.00 | 86 | 1019.0 |
| 20260509005501 | 52 | 182 | 0.0 | 2.0 | 0.00 | 0.00 | 0.00 | 86 | 1019.0 |
| 20260509005002 | 53 | 182 | 0.0 | 1.0 | 0.00 | 0.00 | 0.00 | 85 | 1019.0 |
| 20260509004604 | 53 | 182 | 0.0 | 0.0 | 0.00 | 0.00 | 0.00 | 85 | 1019.0 |
| 20260509004103 | 53 | 182 | 0.0 | 0.0 | 0.00 | 0.00 | 0.00 | 85 | 1019.0 |
| 20260509003559 | 53 | 182 | 0.0 | 0.0 | 0.00 | 0.00 | 0.00 | 84 | 1018.9 |
| 20260509003059 | 53 | 182 | 0.0 | 0.0 | 0.00 | 0.00 | 0.00 | 84 | 1019.0 |
| 20260509002558 | 53 | 182 | 0.0 | 0.0 | 0.00 | 0.00 | 0.00 | 84 | 1019.0 |
| 20260509002100 | 54 | 182 | 0.0 | 1.0 | 0.00 | 0.00 | 0.00 | 84 | 1019.0 |
| 20260509001558 | 54 | 182 | 0.0 | 2.0 | 0.00 | 0.00 | 0.00 | 83 | 1018.9 |
| 20260509001056 | 54 | 182 | 0.0 | 2.0 | 0.00 | 0.00 | 0.00 | 83 | 1019.0 |
| 20260509000557 | 54 | 182 | 0.0 | 0.0 | 0.00 | 0.00 | 0.00 | 83 | 1018.9 |
| 20260509000055 | 54 | 182 | 0.0 | 0.0 | 0.00 | 0.00 | 0.00 | 83 | 1019.0 |
| 20260508235554 | 55 | 182 | 0.0 | 0.0 | 0.00 | 0.00 | 0.00 | 83 | 1019.0 |
| 20260508235054 | 55 | 182 | 0.0 | 0.0 | 0.00 | 0.00 | 0.00 | 82 | 1019.0 |
| 20260508234556 | 55 | 182 | 0.0 | 0.0 | 0.00 | 0.00 | 0.00 | 82 | 1019.0 |
| 20260508234055 | 55 | 182 | 0.0 | 0.0 | 0.00 | 0.00 | 0.00 | 82 | 1019.1 |
| 20260508233552 | 55 | 182 | 0.0 | 0.0 | 0.00 | 0.00 | 0.00 | 81 | 1019.1 |
| 20260508233053 | 55 | 182 | 0.0 | 0.0 | 0.00 | 0.00 | 0.00 | 81 | 1019.2 |
| 20260508232550 | 56 | 182 | 0.0 | 0.0 | 0.00 | 0.00 | 0.00 | 81 | 1019.2 |
| 20260508232049 | 56 | 182 | 0.0 | 0.0 | 0.00 | 0.00 | 0.00 | 81 | 1019.3 |
| 20260508231554 | 56 | 182 | 0.0 | 0.0 | 0.00 | 0.00 | 0.00 | 80 | 1019.2 |
| 20260508231047 | 56 | 182 | 0.0 | 0.0 | 0.00 | 0.00 | 0.00 | 80 | 1019.1 |
| 20260508230545 | 56 | 182 | 0.0 | 0.0 | 0.00 | 0.00 | 0.00 | 79 | 1019.0 |
| 20260508230045 | 57 | 182 | 0.0 | 0.0 | 0.00 | 0.00 | 0.00 | 79 | 1019.0 |
| 20260508225545 | 57 | 182 | 0.0 | 0.0 | 0.00 | 0.00 | 0.00 | 79 | 1019.1 |
| 20260508225046 | 57 | 182 | 0.0 | 0.0 | 0.00 | 0.00 | 0.00 | 78 | 1019.1 |
| 20260508224602 | 57 | 182 | 0.0 | 1.0 | 0.00 | 0.00 | 0.00 | 78 | 1019.1 |
| 20260508224045 | 58 | 182 | 0.0 | 1.0 | 0.00 | 0.00 | 0.00 | 78 | 1019.2 |
| 20260508223544 | 58 | 182 | 0.0 | 1.0 | 0.00 | 0.00 | 0.00 | 77 | 1019.1 |
| 20260508223042 | 58 | 182 | 0.0 | 1.0 | 0.00 | 0.00 | 0.00 | 76 | 1019.0 |
| 20260508222542 | 58 | 182 | 0.0 | 1.0 | 0.00 | 0.00 | 0.00 | 76 | 1019.1 |
| 20260508222040 | 59 | 182 | 0.0 | 0.0 | 0.00 | 0.00 | 0.00 | 76 | 1019.0 |
| 20260508221548 | 59 | 182 | 0.0 | 0.0 | 0.00 | 0.00 | 0.00 | 75 | 1018.9 |
| 20260508221038 | 59 | 182 | 0.0 | 0.0 | 0.00 | 0.00 | 0.00 | 75 | 1018.8 |
| 20260508220539 | 59 | 182 | 0.0 | 0.0 | 0.00 | 0.00 | 0.00 | 75 | 1018.8 |
| 20260508220036 | 59 | 182 | 0.0 | 0.0 | 0.00 | 0.00 | 0.00 | 75 | 1018.7 |
| 20260508215535 | 60 | 182 | 0.0 | 2.0 | 0.00 | 0.00 | 0.00 | 75 | 1018.7 |
| 20260508215036 | 60 | 182 | 0.0 | 2.0 | 0.00 | 0.00 | 0.00 | 74 | 1018.7 |
| 20260508214540 | 60 | 182 | 0.0 | 2.0 | 0.00 | 0.00 | 0.00 | 74 | 1018.8 |
| 20260508214036 | 60 | 182 | 0.0 | 2.0 | 0.00 | 0.00 | 0.00 | 74 | 1018.7 |
| 20260508213535 | 60 | 182 | 0.0 | 3.0 | 0.00 | 0.00 | 0.00 | 73 | 1018.7 |
| 20260508213037 | 61 | 182 | 0.0 | 3.0 | 0.00 | 0.00 | 0.00 | 73 | 1018.6 |
| 20260508212535 | 61 | 182 | 0.0 | 2.0 | 0.00 | 0.00 | 0.00 | 72 | 1018.4 |
| 20260508212035 | 61 | 182 | 0.0 | 2.0 | 0.00 | 0.00 | 0.00 | 71 | 1018.4 |
| 20260508211536 | 61 | 182 | 0.0 | 3.0 | 0.00 | 0.00 | 0.00 | 71 | 1018.5 |
| 20260508211034 | 62 | 182 | 0.0 | 3.0 | 0.00 | 0.00 | 0.00 | 71 | 1018.5 |
| 20260508210534 | 62 | 182 | 0.0 | 4.0 | 0.00 | 0.00 | 0.00 | 70 | 1018.4 |
| 20260508210036 | 62 | 182 | 0.0 | 4.0 | 0.00 | 0.00 | 0.00 | 70 | 1018.4 |
| 20260508205534 | 62 | 182 | 1.0 | 4.0 | 0.00 | 0.00 | 0.00 | 70 | 1018.3 |
| 20260508205035 | 63 | 182 | 0.0 | 0.0 | 0.00 | 0.00 | 0.00 | 70 | 1018.4 |
| 20260508204535 | 63 | 182 | 0.0 | 0.0 | 0.00 | 0.00 | 0.00 | 70 | 1018.4 |
| 20260508204033 | 63 | 182 | 0.0 | 0.0 | 0.00 | 0.00 | 0.00 | 70 | 1018.4 |
| 20260508203533 | 63 | 182 | 0.0 | 1.0 | 0.00 | 0.00 | 0.00 | 70 | 1018.5 |
| 20260508203035 | 63 | 182 | 0.0 | 0.0 | 0.00 | 0.00 | 0.00 | 70 | 1018.5 |
| 20260508202534 | 63 | 182 | 0.0 | 0.0 | 0.00 | 0.00 | 0.00 | 69 | 1018.5 |
| 20260508202035 | 64 | 182 | 0.0 | 3.0 | 0.00 | 0.00 | 0.00 | 69 | 1018.4 |
| 20260508201538 | 64 | 182 | 0.0 | 3.0 | 0.00 | 0.00 | 0.00 | 69 | 1018.4 |
| 20260508201033 | 64 | 182 | 0.0 | 0.0 | 0.00 | 0.00 | 0.00 | 68 | 1018.5 |
| 20260508200533 | 64 | 182 | 0.0 | 0.0 | 0.00 | 0.00 | 0.00 | 68 | 1018.4 |
| 20260508200044 | 64 | 182 | 0.0 | 0.0 | 0.00 | 0.00 | 0.00 | 67 | 1018.3 |
| 20260508195532 | 64 | 182 | 0.0 | 1.0 | 0.00 | 0.00 | 0.00 | 67 | 1018.2 |
| 20260508195034 | 64 | 182 | 0.0 | 1.0 | 0.00 | 0.00 | 0.00 | 67 | 1018.1 |
| 20260508194532 | 64 | 182 | 0.0 | 3.0 | 0.00 | 0.00 | 0.00 | 67 | 1018.0 |
| 20260508194031 | 64 | 182 | 0.0 | 3.0 | 0.00 | 0.00 | 0.00 | 67 | 1017.9 |
| 20260508193532 | 65 | 294 | 0.0 | 3.0 | 0.00 | 0.00 | 0.00 | 67 | 1017.7 |
| 20260508193037 | 65 | 309 | 1.0 | 3.0 | 0.00 | 0.00 | 0.00 | 66 | 1017.5 |
| 20260508192532 | 65 | 22 | 0.0 | 2.0 | 0.00 | 0.00 | 0.00 | 66 | 1017.4 |
| 20260508192032 | 65 | 22 | 0.0 | 3.0 | 0.00 | 0.00 | 0.00 | 65 | 1017.3 |
| 20260508191533 | 65 | 22 | 0.0 | 3.0 | 0.00 | 0.00 | 0.00 | 65 | 1017.1 |
| 20260508191031 | 66 | 339 | 0.0 | 3.0 | 0.00 | 0.00 | 0.00 | 64 | 1016.9 |
| 20260508190631 | 66 | 194 | 0.0 | 2.0 | 0.00 | 0.00 | 0.00 | 64 | 1017.0 |
| 20260508190030 | 66 | 194 | 0.0 | 2.0 | 0.00 | 0.00 | 0.00 | 63 | 1017.0 |
| 20260508185530 | 66 | 198 | 0.0 | 1.0 | 0.00 | 0.00 | 0.00 | 62 | 1016.9 |
| 20260508185030 | 66 | 198 | 0.0 | 2.0 | 0.00 | 0.00 | 0.00 | 62 | 1016.8 |
| 20260508184530 | 67 | 198 | 0.0 | 5.0 | 0.00 | 0.00 | 0.00 | 62 | 1016.8 |